Vertical_Velocity
-0 2 0 1 0 -2 -2 -3 -2 1 -0 -3 -0 0 -1 -1 0 -1 -0 -1 -2 -1 -1 -1 -2 -1 -1 -1 -2 -1 -2 -2 -1 -2 -2 -5 -4 -4 -4 -3 -3 -4 -5
1 2 0 2 -2 -0 -0 -2 -3 -1 2 -1 -3 -1 -1 -1 -0 -0 -0 -2 -1 -1 -0 -1 -1 -2 -1 -2 -1 -1 -2 -2 -2 -3 -1 -5 -3 -3 -4 -2 -1 -5 -1
1 1 1 0 -1 -0 -0 -2 -3 -2 -1 1 1 -2 -1 0 -1 -1 -1 -1 -1 -1 -0 -2 -1 -1 -2 -0 -2 0 -2 -2 -1 -2 -3 -3 -2 -2 -3 -3 -2 -3 -2
1 -0 1 2 0 -1 -1 -1 -2 -2 -3 -0 0 1 -2 -1 2 -1 -1 -0 -1 -1 -2 -1 -1 -1 -1 0 -2 0 -1 -2 -1 -1 -1 -3 -3 -3 -1 -3 -3 -2 -0
2 1 1 0 2 -1 -1 -0 -1 -2 -2 -2 -1 -0 1 0 -1 -0 0 -1 -1 0 -2 -1 -1 -1 -1 -1 -1 -1 -1 -3 -1 -2 -2 -5 -4 -3 -2 -2 -1 -3 -3
3 1 1 0 3 -2 -0 -1 -0 -0 -1 -2 -1 -1 -1 -0 0 1 -0 -3 0 0 -1 -1 -1 -1 -1 -1 -1 1 -0 -1 -2 -1 0 -2 -3 -3 -2 -1 -2 -2 -3
-1 2 3 0 2 -2 -1 0 -1 0 0 -3 0 -0 0 -0 -0 -1 0 1 -3 2 -1 0 -3 -2 0 -1 -2 0 -1 0 -1 -2 0 -2 -1 -3 -2 -1 -2 -2 -2
2 2 2 1 2 0 1 -0 0 -1 0 -1 -1 -1 -0 -1 1 0 -1 0 -0 -0 0 -2 -0 -1 -1 -1 -0 1 -0 1 -1 -1 -2 -1 -0 -2 -1 -3 -3 -2 -2
-3 1 2 -0 1 1 -0 0 -0 -0 -0 -1 0 -1 -0 1 -0 0 -0 -0 -0 1 1 1 -3 -3 1 0 -2 0 -1 -1 -3 -2 1 -2 0 -2 -2 -2 -1 -2 -1
4 -1 -1 -0 3 2 1 -2 1 0 -1 -0 -1 1 -1 -0 1 -0 1 -1 0 1 0 0 0 0 -1 -2 -1 -2 -1 0 0 -1 1 0 -1 -2 -4 -0 -2 -2 0
-7 6 2 -2 -4 4 1 -1 1 -0 -1 2 -1 -1 0 -0 -1 -1 1 -1 0 0 1 -1 -0 -1 0 -0 -1 -1 -1 -0 -0 -0 -1 -2 1 0 -1 -0 0 -1 -0
-4 -4 6 3 -7 0 0 -0 1 2 -1 -1 -0 2 -0 0 0 -1 -0 1 1 1 1 2 -1 -0 0 -1 1 -2 -1 -2 -1 -1 0 2 -1 -1 1 -0 -2 -3 -2
-8 -7 1 -5 -3 -1 -5 -3 -1 -2 3 1 0 0 0 1 1 1 1 -1 -0 3 0 -0 3 -1 0 1 -2 1 -0 -2 -1 -0 0 -1 -0 -1 -1 1 -2 -2 -1
-1 -0 2 -4 1 -3 -1 0 1 -3 -1 4 2 0 -0 -2 -2 1 -0 2 -1 1 -0 2 0 1 0 -1 -0 2 -1 -0 -1 -0 -1 -1 -2 -1 -2 -1 1 -1 -2
0 -2 -4 -5 -1 5 3 0 -2 2 0 -2 1 5 -2 0 -1 1 -1 -1 1 1 2 -1 3 0 1 3 -1 -0 0 0 -1 -1 -0 -1 -1 -2 1 -0 -1 -0 -2
-1 -0 -1 -4 -3 -1 -7 -2 2 -1 -2 0 -1 -0 3 2 -1 -2 1 -2 1 -1 5 -3 1 1 1 3 -1 -0 1 -1 2 -1 -2 -0 -1 -1 -0 0 -0 -0 3
1 3 1 -5 -4 -4 -5 3 -5 -1 -1 2 -2 1 0 2 -0 1 -3 -2 -3 1 1 -0 4 3 -3 -1 4 -2 2 1 -1 0 0 -1 -1 -1 -1 -2 -1 1 0
-1 -0 -0 3 -2 -0 -7 -0 -2 3 5 1 1 -4 1 -1 1 -1 3 -1 -2 -4 2 -2 -1 5 5 -1 -1 2 0 2 -1 0 -0 -1 -0 -0 -2 -0 -2 -1 1
1 -1 -4 5 2 -2 -3 -3 -4 -3 2 -0 -2 -0 0 -3 4 3 -1 11 -2 -4 -2 3 -1 3 2 1 3 0 2 -2 2 -0 1 -1 -1 -0 1 -1 -0 -1 -0
-2 0 2 -3 2 -3 -0 1 -9 -5 -2 2 1 5 -1 -4 -1 1 2 1 8 2 -3 -1 -0 -0 2 1 2 2 -2 6 1 1 -0 -5 2 -1 -1 -2 -0 -1 0
-1 -1 0 2 -1 2 3 0 -1 -2 -1 0 1 6 4 -2 -2 -2 -3 0 -1 9 -0 -0 -1 1 4 2 2 -0 2 -5 4 0 1 2 1 -1 -3 -2 -1 1 0
0 -1 -0 1 3 2 4 1 1 -4 -1 -2 -4 0 3 6 3 1 -1 -0 -1 -0 7 3 3 -1 4 -0 -0 -2 -0 3 5 -6 -1 5 0 1 -2 -1 -1 2 -1
-1 -2 -3 -2 -1 -1 5 1 -3 3 0 1 -1 1 0 2 -2 -1 3 -2 -2 -0 1 5 2 5 -2 3 -4 4 1 1 2 2 4 1 -2 0 -3 -1 -3 -2 -1
1 2 -0 -3 -3 1 4 3 6 7 3 7 1 0 -1 4 4 -1 1 -3 1 -1 11 -3 2 5 8 -1 1 0 -4 3 1 1 0 8 -4 5 -0 -1 -3 -3 -7
3 0 1 -2 -3 2 1 3 1 4 5 7 12 -1 1 1 7 3 -1 -3 -2 2 -0 2 -2 11 1 5 3 -6 13 -5 8 7 -3 4 -3 4 -1 7 1 1 0
1 3 -1 1 0 -1 1 4 3 -1 -1 2 3 -0 4 1 3 2 -5 -3 -6 13 -2 -4 0 4 11 4 -4 -2 3 1 5 8 -5 2 -4 -6 6 2 5 2 4
Height
5884 5887 5887 5887 5887 5886 5886 5885 5883 5883 5882 5880 5879 5878 5877 5877 5876 5875 5874 5872 5870 5868 5867 5865 5863 5862 5861 5859 5857 5854 5852 5849 5846 5842 5839 5836 5833 5830 5827 5823 5820 5817 5812
5882 5884 5885 5886 5885 5885 5885 5884 5883 5882 5881 5880 5877 5876 5876 5875 5874 5873 5873 5871 5870 5868 5867 5865 5863 5861 5859 5858 5856 5854 5851 5848 5846 5842 5839 5836 5833 5830 5827 5823 5819 5815 5810
5880 5882 5883 5883 5883 5883 5883 5882 5882 5881 5879 5879 5878 5875 5874 5874 5872 5872 5871 5870 5869 5867 5865 5864 5862 5861 5859 5857 5856 5853 5851 5848 5845 5842 5839 5836 5833 5829 5826 5822 5818 5814 5809
5877 5879 5881 5881 5881 5881 5881 5881 5880 5879 5877 5876 5875 5875 5873 5871 5871 5871 5870 5869 5868 5867 5864 5863 5862 5861 5858 5857 5855 5853 5850 5847 5844 5841 5839 5836 5832 5829 5825 5822 5818 5813 5808
5873 5875 5877 5878 5879 5878 5878 5878 5878 5877 5876 5874 5873 5872 5872 5871 5870 5869 5869 5868 5867 5866 5864 5863 5861 5860 5857 5855 5853 5851 5849 5847 5844 5841 5838 5836 5832 5828 5825 5821 5816 5811 5807
5868 5871 5873 5874 5875 5875 5876 5876 5875 5875 5874 5872 5871 5870 5869 5868 5868 5868 5866 5866 5866 5864 5863 5862 5860 5859 5856 5853 5851 5850 5848 5846 5844 5841 5837 5834 5831 5828 5824 5819 5815 5810 5806
5863 5866 5868 5869 5871 5871 5872 5872 5872 5872 5872 5870 5869 5867 5866 5865 5865 5865 5865 5864 5863 5862 5861 5860 5859 5857 5854 5852 5850 5848 5847 5845 5842 5840 5836 5832 5829 5825 5822 5818 5814 5809 5805
5856 5859 5862 5864 5866 5867 5868 5869 5869 5869 5869 5868 5866 5865 5863 5863 5863 5862 5862 5862 5862 5859 5859 5858 5857 5855 5853 5851 5849 5847 5845 5843 5841 5838 5835 5832 5828 5825 5821 5817 5812 5808 5804
5850 5854 5856 5858 5860 5862 5863 5865 5865 5865 5865 5864 5864 5862 5860 5859 5859 5858 5858 5859 5858 5858 5857 5855 5853 5852 5851 5849 5847 5845 5843 5841 5839 5837 5834 5830 5826 5822 5818 5815 5810 5806 5802
5843 5846 5849 5852 5856 5857 5858 5859 5861 5861 5861 5861 5860 5859 5857 5856 5855 5855 5855 5855 5855 5854 5854 5854 5853 5851 5847 5846 5844 5843 5841 5839 5836 5834 5831 5828 5824 5820 5816 5812 5807 5803 5798
5835 5839 5842 5844 5848 5852 5853 5854 5855 5856 5857 5858 5857 5856 5854 5853 5852 5850 5851 5851 5851 5850 5849 5849 5849 5849 5846 5844 5842 5841 5838 5836 5834 5831 5829 5826 5821 5818 5814 5810 5806 5801 5797
5825 5826 5833 5836 5837 5843 5846 5846 5848 5850 5851 5852 5853 5853 5852 5850 5849 5848 5846 5847 5846 5846 5845 5844 5844 5844 5843 5841 5838 5836 5834 5832 5830 5828 5825 5823 5820 5816 5812 5807 5803 5799 5795
5817 5817 5821 5825 5828 5831 5835 5837 5839 5842 5844 5846 5847 5847 5847 5846 5845 5844 5843 5842 5841 5842 5841 5840 5839 5838 5838 5836 5834 5832 5830 5827 5825 5823 5820 5818 5816 5812 5808 5804 5800 5796 5792
5812 5810 5816 5818 5819 5821 5825 5829 5831 5833 5836 5840 5841 5842 5841 5840 5840 5839 5837 5838 5837 5836 5836 5835 5834 5833 5832 5831 5830 5828 5826 5824 5821 5818 5816 5814 5811 5808 5805 5801 5797 5793 5789
5806 5804 5809 5812 5811 5815 5818 5821 5822 5825 5827 5830 5833 5835 5835 5834 5834 5834 5833 5832 5832 5831 5830 5830 5829 5827 5827 5825 5824 5823 5821 5818 5815 5813 5811 5808 5806 5803 5800 5796 5792 5789 5784
5800 5800 5799 5803 5807 5808 5809 5812 5815 5816 5818 5822 5823 5825 5828 5827 5827 5828 5827 5826 5826 5825 5825 5824 5822 5821 5821 5820 5817 5816 5814 5813 5810 5808 5806 5803 5800 5797 5793 5790 5787 5784 5779
5791 5794 5793 5795 5798 5801 5802 5802 5804 5806 5807 5812 5814 5815 5818 5818 5820 5821 5821 5820 5819 5818 5817 5816 5816 5814 5813 5813 5811 5809 5808 5805 5804 5802 5799 5796 5793 5790 5787 5784 5781 5777 5774
5783 5786 5789 5788 5790 5793 5792 5793 5792 5792 5796 5800 5805 5804 5808 5809 5812 5812 5813 5813 5811 5809 5809 5809 5809 5809 5806 5805 5803 5802 5801 5799 5796 5794 5792 5790 5786 5784 5781 5777 5774 5770 5767
5775 5777 5780 5782 5782 5783 5783 5784 5786 5785 5787 5790 5793 5794 5798 5798 5801 5803 5803 5804 5803 5802 5800 5800 5798 5800 5798 5796 5796 5794 5792 5790 5789 5786 5783 5781 5780 5777 5773 5769 5766 5763 5759
5767 5769 5770 5772 5774 5773 5774 5775 5778 5778 5778 5778 5780 5784 5787 5787 5790 5793 5793 5794 5794 5793 5792 5791 5789 5789 5789 5787 5785 5784 5783 5782 5781 5779 5774 5772 5769 5769 5765 5762 5758 5755 5750
5758 5760 5762 5763 5764 5765 5766 5768 5767 5769 5769 5769 5769 5772 5776 5776 5778 5780 5780 5783 5783 5783 5782 5781 5780 5778 5780 5779 5776 5773 5773 5769 5771 5769 5769 5764 5762 5758 5754 5753 5749 5746 5743
5749 5751 5753 5754 5756 5757 5757 5758 5757 5757 5758 5759 5761 5762 5763 5764 5764 5768 5769 5770 5771 5771 5772 5770 5769 5769 5767 5766 5765 5762 5762 5761 5761 5755 5756 5757 5752 5748 5746 5742 5739 5738 5735
5738 5741 5743 5744 5746 5748 5749 5748 5748 5748 5749 5750 5751 5752 5753 5753 5752 5752 5756 5757 5757 5758 5760 5760 5759 5759 5755 5754 5753 5754 5751 5749 5749 5748 5746 5746 5740 5740 5735 5733 5729 5725 5723
5725 5728 5731 5733 5734 5737 5738 5739 5739 5737 5736 5738 5740 5741 5741 5742 5742 5740 5742 5743 5745 5745 5747 5747 5746 5748 5745 5743 5742 5741 5740 5739 5738 5737 5733 5735 5731 5729 5726 5726 5722 5717 5712
5712 5716 5719 5720 5722 5724 5726 5727 5726 5725 5725 5726 5727 5728 5728 5728 5729 5730 5730 5729 5728 5729 5731 5733 5733 5733 5732 5731 5729 5727 5728 5726 5729 5727 5722 5719 5719 5717 5716 5714 5710 5706 5703
5699 5701 5704 5707 5709 5711 5712 5714 5713 5712 5712 5712 5714 5716 5715 5714 5715 5715 5716 5717 5715 5717 5717 5716 5718 5718 5719 5717 5714 5713 5713 5714 5713 5712 5712 5704 5706 5703 5703 5701 5697 5693 5690